contact:dominique.lefevre@mio.osupytheas.fr, maurice.libes@osupytheas.fr, didier.mallarino@osupytheas.fr
Project:EMSO http://www.emso-fr.org/EMSO-France
Depth: 2436.0 m
Title:EMSO Ligure Ouest : Data MII capteur AQUADOPP
Date,Latitude,Longitude,X_East,Y_North,Z_Up,Amplitude_X,Amplitude_Y,Amplitude_Z,Batterie,SoundSpeed,Heading,Pitch,Roll,Pressure,TIS,Speed,Direction
, degrees North, degrees East, m.s-1, m.s-1,m.s-1, 1, 1, 1, Volt, m.s-1, degree, degree, degree, dbar, degree_C, m.s-1, degree
2022-09-10T00:04:03,42.805,6.029,0.011,-0.013,-0.013,101.0,101.0,101.0,13.4,1505.2,331.6,-0.8,1.8,2470.474,13.28,0.017,139.8
2022-09-10T00:07:03,42.805,6.029,-0.008,0.002,-0.005,102.0,101.0,100.0,13.4,1505.2,325.3,-0.8,1.8,2470.481,13.28,0.008,284.0
2022-09-10T00:10:03,42.805,6.029,-0.014,0.011,0.008,101.0,101.0,100.0,13.4,1505.2,326.7,-0.8,1.8,2470.459,13.28,0.017,308.2
2022-09-10T00:13:03,42.805,6.029,0.007,0.012,0.03,102.0,102.0,101.0,13.4,1505.2,321.8,-0.8,1.8,2470.444,13.29,0.013,30.3
2022-09-10T00:16:03,42.805,6.029,-0.025,0.004,-0.014,103.0,101.0,101.0,13.4,1505.2,325.3,-0.7,1.9,2470.459,13.29,0.025,279.1
2022-09-10T00:19:03,42.805,6.029,0.006,0.014,0.002,101.0,102.0,101.0,13.3,1505.2,326.1,-0.8,1.8,2470.45,13.29,0.015,23.2
2022-09-10T00:22:03,42.805,6.029,0.016,-0.015,0.0,101.0,102.0,101.0,13.4,1505.2,328.5,-0.8,1.8,2470.427,13.29,0.021,133.1
2022-09-10T00:25:03,42.805,6.029,-0.013,0.001,0.0,102.0,101.0,101.0,13.4,1505.2,328.1,-0.7,1.8,2470.455,13.29,0.013,274.4
2022-09-10T00:28:03,42.805,6.029,0.016,0.0,-0.001,102.0,101.0,101.0,13.3,1505.2,318.3,-0.7,1.8,2470.464,13.29,0.016,90.0
2022-09-10T00:31:03,42.805,6.029,0.011,0.005,-0.004,102.0,101.0,101.0,13.3,1505.2,330.7,-0.8,1.8,2470.418,13.29,0.012,65.6
2022-09-10T00:34:03,42.805,6.029,0.006,-0.013,-0.02,102.0,102.0,101.0,13.3,1505.2,325.0,-0.8,1.8,2470.462,13.29,0.014,155.2
2022-09-10T00:37:03,42.805,6.029,0.013,-0.005,-0.008,102.0,103.0,102.0,13.4,1505.2,322.3,-0.7,1.8,2470.452,13.29,0.013,111.0
2022-09-10T00:40:03,42.805,6.029,0.003,-0.003,-0.009,101.0,101.0,101.0,13.4,1505.2,330.0,-0.7,1.8,2470.458,13.29,0.004,135.0
2022-09-10T00:43:03,42.805,6.029,0.001,0.002,0.014,101.0,105.0,99.0,13.4,1505.2,328.4,-0.8,1.8,2470.467,13.29,0.002,26.6
2022-09-10T00:46:03,42.805,6.029,0.009,0.016,0.015,101.0,102.0,101.0,13.4,1505.2,318.2,-0.8,1.8,2470.414,13.29,0.018,29.4
2022-09-10T00:49:03,42.805,6.029,0.017,0.003,-0.018,101.0,102.0,100.0,13.4,1505.2,334.8,-0.8,1.9,2470.443,13.29,0.017,80.0
2022-09-10T00:52:03,42.805,6.029,0.026,0.017,0.001,101.0,102.0,101.0,13.3,1505.2,317.8,-0.8,1.8,2470.406,13.29,0.031,56.8
2022-09-10T00:55:03,42.805,6.029,0.0,0.005,0.018,102.0,99.0,101.0,13.4,1505.2,326.3,-0.8,1.8,2470.426,13.29,0.005,0.0
2022-09-10T00:58:03,42.805,6.029,0.009,-0.002,-0.008,101.0,102.0,100.0,13.4,1505.2,319.9,-0.8,1.8,2470.399,13.29,0.009,102.5
2022-09-10T01:04:03,42.805,6.029,-0.011,-0.004,0.003,102.0,104.0,102.0,13.3,1505.2,330.4,-0.8,1.8,2470.44,13.28,0.011,250.0
2022-09-10T01:07:03,42.805,6.029,0.03,0.018,0.009,101.0,102.0,101.0,13.4,1505.2,317.6,-0.8,1.8,2470.422,13.28,0.034,59.0
2022-09-10T01:10:03,42.805,6.029,0.001,0.014,-0.013,101.0,101.0,101.0,13.3,1505.2,324.4,-0.8,1.8,2470.464,13.28,0.014,4.1
2022-09-10T01:13:03,42.805,6.029,0.009,-0.006,0.014,102.0,102.0,100.0,13.4,1505.2,334.5,-0.8,1.8,2470.449,13.29,0.01,123.7
2022-09-10T01:16:03,42.805,6.029,0.002,0.006,0.027,102.0,100.0,103.0,13.4,1505.2,327.5,-0.8,1.8,2470.452,13.29,0.006,18.4
2022-09-10T01:19:03,42.805,6.029,0.014,0.005,0.008,102.0,101.0,101.0,13.4,1505.2,326.4,-0.7,1.8,2470.467,13.29,0.014,70.4
2022-09-10T01:22:03,42.805,6.029,-0.008,0.012,0.013,101.0,102.0,100.0,13.3,1505.2,329.3,-0.7,1.9,2470.465,13.29,0.014,326.3
2022-09-10T01:25:03,42.805,6.029,0.012,0.004,-0.018,102.0,101.0,101.0,13.3,1505.2,322.1,-0.7,1.8,2470.442,13.29,0.012,71.6
2022-09-10T01:28:03,42.805,6.029,0.002,0.006,-0.007,101.0,103.0,101.0,13.3,1505.2,327.1,-0.8,1.8,2470.44,13.29,0.006,18.4
2022-09-10T01:31:03,42.805,6.029,0.004,0.018,0.012,102.0,101.0,101.0,13.3,1505.2,327.0,-0.7,1.8,2470.407,13.29,0.018,12.5
2022-09-10T01:34:03,42.805,6.029,0.024,-0.008,-0.005,101.0,102.0,101.0,13.4,1505.2,323.9,-0.7,1.8,2470.448,13.29,0.025,108.4
2022-09-10T01:37:03,42.805,6.029,0.012,0.003,-0.005,101.0,102.0,100.0,13.4,1505.2,326.4,-0.7,1.8,2470.441,13.29,0.012,76.0
2022-09-10T01:40:03,42.805,6.029,-0.005,0.0,-0.003,104.0,101.0,101.0,13.3,1505.2,327.2,-0.8,1.8,2470.417,13.29,0.005,270.0
2022-09-10T01:43:03,42.805,6.029,0.027,-0.001,0.008,102.0,102.0,101.0,13.4,1505.2,327.1,-0.7,1.8,2470.394,13.29,0.027,92.1
2022-09-10T01:46:03,42.805,6.029,0.005,-0.006,-0.022,101.0,103.0,101.0,13.3,1505.2,333.1,-0.8,1.8,2470.393,13.29,0.007,140.2
2022-09-10T01:49:03,42.805,6.029,0.004,-0.014,-0.03,102.0,105.0,102.0,13.3,1505.2,323.6,-0.8,1.8,2470.45,13.29,0.014,164.1
2022-09-10T01:52:03,42.805,6.029,0.012,0.006,0.009,102.0,101.0,101.0,13.4,1505.2,322.2,-0.7,1.8,2470.442,13.29,0.013,63.4
2022-09-10T01:55:03,42.805,6.029,0.005,0.017,0.002,102.0,102.0,100.0,13.4,1505.2,327.0,-0.7,1.8,2470.483,13.29,0.017,16.4
2022-09-10T01:58:03,42.805,6.029,0.026,0.012,0.015,101.0,101.0,101.0,13.4,1505.2,328.8,-0.7,1.8,2470.442,13.29,0.028,65.2
2022-09-10T02:04:03,42.805,6.029,0.015,-0.022,-0.028,101.0,100.0,101.0,13.4,1505.2,324.1,-0.7,1.8,2470.478,13.28,0.026,145.7
2022-09-10T02:07:03,42.805,6.029,0.022,0.013,0.019,100.0,102.0,102.0,13.4,1505.2,322.7,-0.7,1.8,2470.509,13.28,0.025,59.4
2022-09-10T02:10:03,42.805,6.029,0.003,-0.01,-0.024,102.0,102.0,101.0,13.4,1505.2,330.9,-0.8,1.8,2470.487,13.28,0.01,163.3
2022-09-10T02:13:03,42.805,6.029,-0.006,-0.019,0.003,102.0,103.0,101.0,13.4,1505.2,321.2,-0.7,1.8,2470.423,13.28,0.019,197.5
2022-09-10T02:16:03,42.805,6.029,0.021,-0.001,-0.019,102.0,102.0,101.0,13.4,1505.2,325.3,-0.8,1.8,2470.445,13.28,0.021,92.7
2022-09-10T02:19:03,42.805,6.029,0.014,0.025,0.027,101.0,101.0,100.0,13.4,1505.2,321.2,-0.7,1.8,2470.484,13.29,0.028,29.3
2022-09-10T02:22:03,42.805,6.029,0.01,-0.017,-0.038,101.0,101.0,101.0,13.4,1505.2,327.5,-0.8,1.8,2470.494,13.29,0.019,149.5
2022-09-10T02:25:03,42.805,6.029,0.007,0.018,0.015,102.0,100.0,101.0,13.4,1505.2,326.3,-0.8,1.8,2470.486,13.29,0.019,21.2
2022-09-10T02:28:03,42.805,6.029,0.008,-0.004,0.006,100.0,101.0,101.0,13.4,1505.2,317.6,-0.8,1.8,2470.48,13.29,0.008,116.6
2022-09-10T02:31:03,42.805,6.029,0.02,-0.009,-0.002,102.0,102.0,100.0,13.3,1505.2,329.2,-0.7,1.8,2470.51,13.29,0.021,114.2
2022-09-10T02:34:03,42.805,6.029,0.0,0.017,0.013,101.0,102.0,101.0,13.3,1505.2,329.7,-0.8,1.8,2470.511,13.29,0.017,0.0
2022-09-10T02:37:03,42.805,6.029,-0.011,-0.017,-0.036,101.0,103.0,101.0,13.4,1505.2,323.7,-0.8,1.8,2470.526,13.29,0.02,212.9
2022-09-10T02:40:03,42.805,6.029,0.01,-0.022,-0.017,102.0,101.0,101.0,13.4,1505.2,330.8,-0.8,1.8,2470.513,13.29,0.024,155.6
2022-09-10T02:43:03,42.805,6.029,0.006,-0.017,-0.036,101.0,102.0,101.0,13.4,1505.2,330.3,-0.8,1.8,2470.494,13.29,0.018,160.6
2022-09-10T02:46:03,42.805,6.029,0.003,-0.02,-0.015,102.0,102.0,101.0,13.4,1505.2,332.6,-0.8,1.8,2470.528,13.29,0.02,171.5
2022-09-10T02:49:03,42.805,6.029,0.017,0.016,0.032,101.0,102.0,103.0,13.4,1505.2,317.4,-0.8,1.8,2470.538,13.29,0.023,46.7
2022-09-10T02:52:03,42.805,6.029,0.017,-0.01,0.009,101.0,101.0,101.0,13.4,1505.2,328.8,-0.8,1.8,2470.553,13.29,0.019,120.5
2022-09-10T02:55:03,42.805,6.029,0.017,-0.007,0.019,102.0,104.0,100.0,13.4,1505.2,328.3,-0.8,1.8,2470.514,13.29,0.018,112.4
2022-09-10T02:58:03,42.805,6.029,0.013,0.0,-0.014,101.0,101.0,101.0,13.4,1505.2,334.2,-0.7,1.8,2470.566,13.29,0.013,90.0
2022-09-10T03:04:03,42.805,6.029,0.018,-0.007,-0.041,104.0,101.0,100.0,13.3,1505.2,334.2,-0.7,1.8,2470.559,13.28,0.019,111.2
2022-09-10T03:07:03,42.805,6.029,0.01,0.006,-0.003,102.0,104.0,100.0,13.4,1505.2,321.4,-0.8,1.8,2470.553,13.28,0.011,59.0
2022-09-10T03:10:03,42.805,6.029,0.017,0.005,-0.005,102.0,102.0,102.0,13.4,1505.2,318.7,-0.8,1.8,2470.553,13.28,0.017,73.6
2022-09-10T03:13:03,42.805,6.029,0.025,-0.009,0.007,102.0,103.0,101.0,13.3,1505.2,323.9,-0.8,1.8,2470.554,13.28,0.026,109.8
2022-09-10T03:16:03,42.805,6.029,0.004,-0.002,0.002,100.0,102.0,102.0,13.3,1505.2,332.0,-0.8,1.8,2470.56,13.28,0.004,116.6
2022-09-10T03:19:03,42.805,6.029,0.019,-0.012,0.013,102.0,101.0,101.0,13.4,1505.2,330.0,-0.8,1.8,2470.588,13.28,0.022,122.3
2022-09-10T03:22:03,42.805,6.029,0.012,0.021,0.015,102.0,101.0,101.0,13.4,1505.2,330.1,-0.8,1.8,2470.585,13.28,0.024,29.7
2022-09-10T03:25:03,42.805,6.029,-0.018,0.002,-0.029,102.0,101.0,101.0,13.3,1505.2,317.0,-0.8,1.8,2470.591,13.29,0.018,276.3
2022-09-10T03:28:03,42.805,6.029,0.013,-0.014,-0.012,102.0,100.0,102.0,13.4,1505.2,329.6,-0.7,1.8,2470.547,13.29,0.019,137.1
2022-09-10T03:31:03,42.805,6.029,0.01,0.003,0.003,103.0,102.0,100.0,13.4,1505.2,321.8,-0.8,1.8,2470.621,13.29,0.01,73.3
2022-09-10T03:34:03,42.805,6.029,0.007,-0.004,-0.001,101.0,101.0,100.0,13.3,1505.2,326.6,-0.8,1.8,2470.556,13.28,0.008,119.7
2022-09-10T03:37:03,42.805,6.029,0.019,-0.01,-0.012,100.0,101.0,101.0,13.3,1505.2,322.6,-0.7,1.8,2470.62,13.29,0.021,117.8
2022-09-10T03:40:03,42.805,6.029,0.0,-0.012,-0.017,103.0,101.0,101.0,13.4,1505.2,326.4,-0.8,1.8,2470.647,13.29,0.012,180.0
2022-09-10T03:43:03,42.805,6.029,0.026,-0.018,0.0,101.0,104.0,101.0,13.4,1505.2,321.1,-0.7,1.8,2470.599,13.29,0.031,124.7
2022-09-10T03:46:03,42.805,6.029,0.047,-0.015,0.007,101.0,102.0,102.0,13.3,1505.2,326.3,-0.8,1.8,2470.627,13.29,0.049,107.7
2022-09-10T03:49:03,42.805,6.029,0.024,-0.007,0.011,101.0,101.0,101.0,13.4,1505.2,327.0,-0.8,1.8,2470.634,13.29,0.025,106.3
2022-09-10T03:52:03,42.805,6.029,0.01,0.006,0.006,101.0,101.0,100.0,13.4,1505.2,333.7,-0.8,1.8,2470.613,13.29,0.011,59.0
2022-09-10T03:55:03,42.805,6.029,0.029,-0.025,-0.016,100.0,101.0,102.0,13.3,1505.2,322.1,-0.8,1.8,2470.617,13.28,0.038,130.8
2022-09-10T03:58:03,42.805,6.029,0.02,-0.023,0.023,102.0,103.0,101.0,13.4,1505.2,327.5,-0.7,1.8,2470.644,13.28,0.03,139.0
2022-09-10T04:04:03,42.805,6.029,0.024,-0.017,0.002,101.0,102.0,101.0,13.4,1505.2,326.3,-0.8,1.8,2470.63,13.28,0.029,125.3
2022-09-10T04:07:03,42.805,6.029,0.0,-0.013,-0.007,101.0,103.0,100.0,13.4,1505.2,320.0,-0.8,1.8,2470.696,13.28,0.013,180.0
2022-09-10T04:10:03,42.805,6.029,0.025,-0.031,-0.035,101.0,102.0,100.0,13.3,1505.2,317.8,-0.8,1.8,2470.637,13.28,0.039,141.1
2022-09-10T04:13:03,42.805,6.029,0.013,-0.011,-0.013,100.0,102.0,102.0,13.4,1505.2,324.7,-0.7,1.8,2470.646,13.28,0.017,130.2
2022-09-10T04:16:03,42.805,6.029,0.031,-0.036,-0.037,100.0,101.0,101.0,13.3,1505.2,331.6,-0.8,1.8,2470.629,13.28,0.047,139.3
2022-09-10T04:19:03,42.805,6.029,0.024,-0.007,0.0,101.0,102.0,100.0,13.4,1505.2,318.9,-0.7,1.8,2470.664,13.28,0.025,106.3
2022-09-10T04:22:03,42.805,6.029,0.008,-0.047,-0.026,100.0,102.0,102.0,13.4,1505.2,325.0,-0.8,1.8,2470.663,13.28,0.047,170.3
2022-09-10T04:25:03,42.805,6.029,0.022,-0.008,0.032,101.0,101.0,101.0,13.4,1505.2,328.5,-0.8,1.8,2470.717,13.29,0.023,110.0
2022-09-10T04:28:03,42.805,6.029,0.017,-0.011,-0.006,99.0,102.0,103.0,13.4,1505.2,322.2,-0.8,1.8,2470.737,13.29,0.02,122.9
2022-09-10T04:31:03,42.805,6.029,0.007,-0.013,-0.014,101.0,103.0,100.0,13.4,1505.2,328.3,-0.8,1.8,2470.697,13.29,0.014,151.7
2022-09-10T04:34:03,42.805,6.029,0.021,-0.006,0.016,103.0,103.0,99.0,13.4,1505.2,324.1,-0.8,1.8,2470.714,13.29,0.021,105.9
2022-09-10T04:37:03,42.805,6.029,-0.011,0.001,0.011,101.0,102.0,101.0,13.3,1505.2,322.0,-0.8,1.8,2470.712,13.29,0.011,275.2
2022-09-10T04:40:03,42.805,6.029,0.027,-0.018,-0.001,101.0,100.0,102.0,13.3,1505.2,327.5,-0.7,1.8,2470.753,13.29,0.032,123.7
2022-09-10T04:43:03,42.805,6.029,0.014,-0.008,-0.001,101.0,101.0,101.0,13.4,1505.2,324.4,-0.7,1.8,2470.707,13.29,0.016,119.7
2022-09-10T04:46:03,42.805,6.029,0.032,-0.007,-0.013,102.0,102.0,101.0,13.4,1505.2,318.3,-0.7,1.8,2470.711,13.29,0.032,102.3
2022-09-10T04:49:03,42.805,6.029,0.02,-0.009,0.0,101.0,102.0,101.0,13.3,1505.2,327.0,-0.7,1.8,2470.764,13.29,0.021,114.2
2022-09-10T04:52:03,42.805,6.029,-0.011,0.012,0.008,102.0,101.0,101.0,13.4,1505.2,317.3,-0.8,1.8,2470.768,13.29,0.016,317.5
2022-09-10T04:55:03,42.805,6.029,-0.008,-0.008,-0.002,102.0,101.0,101.0,13.3,1505.2,327.4,-0.7,1.8,2470.748,13.29,0.011,225.0
2022-09-10T04:58:03,42.805,6.029,0.037,-0.027,-0.001,101.0,101.0,101.0,13.3,1505.2,329.6,-0.7,1.9,2470.759,13.29,0.045,126.1
2022-09-10T05:04:03,42.805,6.029,0.025,-0.017,-0.001,102.0,101.0,100.0,13.4,1505.2,321.1,-0.8,1.8,2470.766,13.28,0.03,124.2
2022-09-10T05:07:03,42.805,6.029,0.01,-0.005,-0.008,102.0,101.0,101.0,13.3,1505.2,322.7,-0.7,1.8,2470.756,13.28,0.011,116.6
2022-09-10T05:10:03,42.805,6.029,0.021,-0.033,0.003,101.0,104.0,101.0,13.4,1505.2,328.9,-0.8,1.8,2470.767,13.28,0.039,147.5
2022-09-10T05:13:03,42.805,6.029,0.021,0.001,-0.025,102.0,102.0,101.0,13.4,1505.2,329.5,-0.8,1.8,2470.729,13.28,0.021,87.3
2022-09-10T05:16:03,42.805,6.029,0.0,-0.029,-0.015,101.0,102.0,101.0,13.4,1505.2,326.3,-0.8,1.8,2470.751,13.28,0.028,180.0
2022-09-10T05:19:03,42.805,6.029,0.017,-0.013,-0.026,101.0,103.0,101.0,13.4,1505.2,326.6,-0.7,1.9,2470.783,13.28,0.021,127.4
2022-09-10T05:22:03,42.805,6.029,0.03,0.013,0.044,102.0,102.0,101.0,13.4,1505.2,319.2,-0.8,1.8,2470.79,13.28,0.032,66.6
2022-09-10T05:25:03,42.805,6.029,0.017,-0.014,-0.01,101.0,103.0,101.0,13.4,1505.2,329.8,-0.7,1.8,2470.729,13.28,0.022,129.5
2022-09-10T05:28:03,42.805,6.029,0.04,-0.02,-0.002,102.0,102.0,101.0,13.3,1505.2,326.4,-0.7,1.8,2470.746,13.28,0.044,116.6
2022-09-10T05:31:03,42.805,6.029,0.026,-0.011,0.0,103.0,102.0,101.0,13.4,1505.2,328.6,-0.7,1.8,2470.731,13.29,0.028,112.9
2022-09-10T05:34:03,42.805,6.029,0.01,-0.005,0.014,101.0,103.0,101.0,13.4,1505.2,322.6,-0.8,1.8,2470.761,13.28,0.011,116.6
2022-09-10T05:37:03,42.805,6.029,-0.003,-0.016,0.0,102.0,102.0,101.0,13.4,1505.2,329.1,-0.8,1.8,2470.736,13.29,0.016,190.6
2022-09-10T05:40:03,42.805,6.029,0.025,-0.016,0.011,102.0,102.0,101.0,13.4,1505.2,329.4,-0.7,1.8,2470.754,13.28,0.029,122.6
2022-09-10T05:43:03,42.805,6.029,0.016,-0.013,0.006,101.0,102.0,103.0,13.4,1505.2,319.1,-0.8,1.8,2470.694,13.29,0.02,129.1
2022-09-10T05:46:03,42.805,6.029,0.021,-0.028,-0.001,102.0,102.0,101.0,13.4,1505.2,320.9,-0.8,1.8,2470.731,13.29,0.035,143.1
2022-09-10T05:49:03,42.805,6.029,0.028,-0.021,0.002,102.0,102.0,101.0,13.4,1505.2,327.3,-0.8,1.8,2470.729,13.29,0.035,126.9
2022-09-10T05:52:03,42.805,6.029,0.0,-0.005,-0.038,101.0,103.0,101.0,13.4,1505.2,328.0,-0.8,1.8,2470.738,13.29,0.005,180.0
2022-09-10T05:55:03,42.805,6.029,0.033,-0.002,0.026,102.0,102.0,101.0,13.4,1505.2,322.0,-0.8,1.8,2470.772,13.29,0.033,93.5
2022-09-10T05:58:03,42.805,6.029,0.01,-0.02,-0.012,103.0,101.0,102.0,13.4,1505.2,315.7,-0.8,1.8,2470.708,13.29,0.022,153.4
2022-09-10T06:04:03,42.805,6.029,0.032,-0.024,-0.022,102.0,102.0,101.0,13.4,1505.2,322.1,-0.7,1.8,2470.744,13.28,0.04,126.9
2022-09-10T06:07:03,42.805,6.029,0.013,-0.015,-0.034,102.0,103.0,100.0,13.4,1505.2,320.4,-0.8,1.8,2470.756,13.28,0.019,139.1
2022-09-10T06:10:03,42.805,6.029,0.016,-0.015,-0.015,101.0,101.0,101.0,13.4,1505.2,320.7,-0.8,1.8,2470.744,13.28,0.021,133.1
2022-09-10T06:13:03,42.805,6.029,0.025,-0.009,-0.021,101.0,101.0,101.0,13.3,1505.2,326.3,-0.8,1.8,2470.762,13.28,0.026,109.8
2022-09-10T06:16:03,42.805,6.029,0.019,-0.008,0.003,101.0,102.0,101.0,13.3,1505.2,324.6,-0.7,1.8,2470.756,13.28,0.02,112.8
2022-09-10T06:19:03,42.805,6.029,0.004,-0.031,-0.053,100.0,103.0,102.0,13.3,1505.2,321.2,-0.8,1.8,2470.786,13.29,0.031,172.7
2022-09-10T06:22:03,42.805,6.029,0.008,-0.022,0.004,101.0,100.0,101.0,13.3,1505.2,321.9,-0.8,1.8,2470.716,13.29,0.023,160.0
2022-09-10T06:25:03,42.805,6.029,0.005,-0.013,-0.024,100.0,102.0,101.0,13.4,1505.2,326.8,-0.8,1.8,2470.767,13.29,0.013,159.0
2022-09-10T06:28:03,42.805,6.029,0.014,-0.032,-0.027,103.0,101.0,101.0,13.3,1505.2,324.6,-0.7,1.8,2470.717,13.29,0.034,156.4
2022-09-10T06:31:03,42.805,6.029,0.012,-0.024,-0.009,103.0,100.0,101.0,13.4,1505.2,332.8,-0.8,1.8,2470.763,13.29,0.026,153.4
2022-09-10T06:34:03,42.805,6.029,0.016,-0.01,-0.026,98.0,103.0,101.0,13.4,1505.2,323.6,-0.7,1.8,2470.763,13.29,0.018,122.0
2022-09-10T06:37:03,42.805,6.029,0.007,-0.023,-0.022,101.0,100.0,101.0,13.4,1505.2,324.9,-0.8,1.8,2470.731,13.29,0.024,163.1
2022-09-10T06:40:03,42.805,6.029,0.007,-0.026,-0.011,101.0,101.0,100.0,13.4,1505.2,325.6,-0.8,1.8,2470.748,13.29,0.026,164.9
2022-09-10T06:43:03,42.805,6.029,0.01,-0.011,-0.016,101.0,101.0,101.0,13.3,1505.2,318.9,-0.7,1.8,2470.761,13.29,0.014,137.7
2022-09-10T06:46:03,42.805,6.029,0.013,-0.029,-0.015,101.0,101.0,101.0,13.3,1505.2,325.5,-0.7,1.8,2470.755,13.29,0.031,155.9
2022-09-10T06:49:03,42.805,6.029,0.006,-0.019,-0.028,101.0,100.0,100.0,13.4,1505.2,320.4,-0.7,1.8,2470.784,13.29,0.019,162.5
2022-09-10T06:52:03,42.805,6.029,0.0,-0.012,-0.023,102.0,101.0,101.0,13.3,1505.2,327.5,-0.7,1.8,2470.77,13.29,0.012,180.0
2022-09-10T06:55:03,42.805,6.029,-0.001,-0.006,-0.012,100.0,102.0,101.0,13.4,1505.2,321.6,-0.8,1.8,2470.793,13.29,0.006,189.5
2022-09-10T06:58:03,42.805,6.029,0.007,-0.029,-0.033,101.0,102.0,100.0,13.4,1505.2,323.2,-0.7,1.8,2470.797,13.29,0.029,166.4
2022-09-10T07:04:03,42.805,6.029,0.024,-0.026,-0.039,101.0,102.0,99.0,13.4,1505.2,323.0,-0.7,1.8,2470.81,13.28,0.035,137.3
2022-09-10T07:07:03,42.805,6.029,0.0,-0.022,-0.02,101.0,102.0,100.0,13.4,1505.2,332.2,-0.8,1.8,2470.813,13.28,0.022,180.0
2022-09-10T07:10:03,42.805,6.029,0.002,-0.014,-0.02,101.0,101.0,100.0,13.4,1505.2,333.4,-0.8,1.8,2470.797,13.28,0.014,171.9
2022-09-10T07:13:03,42.805,6.029,0.004,0.001,0.008,100.0,102.0,100.0,13.4,1505.2,331.0,-0.8,1.8,2470.793,13.29,0.004,76.0
2022-09-10T07:16:03,42.805,6.029,0.005,-0.012,-0.034,101.0,102.0,100.0,13.4,1505.2,332.3,-0.8,1.8,2470.809,13.29,0.013,157.4
2022-09-10T07:19:03,42.805,6.029,0.003,-0.019,0.003,101.0,101.0,101.0,13.4,1505.2,320.5,-0.8,1.8,2470.776,13.29,0.019,171.0
2022-09-10T07:22:03,42.805,6.029,-0.016,0.004,-0.021,101.0,102.0,101.0,13.4,1505.2,328.5,-0.7,1.8,2470.836,13.29,0.016,284.0
2022-09-10T07:25:03,42.805,6.029,-0.009,-0.013,-0.006,101.0,104.0,100.0,13.4,1505.2,321.3,-0.8,1.8,2470.803,13.29,0.015,214.7
2022-09-10T07:28:03,42.805,6.029,-0.015,-0.009,-0.02,101.0,101.0,100.0,13.4,1505.2,324.3,-0.8,1.9,2470.798,13.29,0.017,239.0
2022-09-10T07:31:03,42.805,6.029,0.012,0.01,0.026,103.0,101.0,100.0,13.3,1505.2,322.7,-0.8,1.8,2470.798,13.29,0.015,50.2
2022-09-10T07:34:03,42.805,6.029,-0.008,-0.011,-0.006,100.0,101.0,101.0,13.4,1505.2,320.5,-0.8,1.8,2470.82,13.29,0.013,216.0
2022-09-10T07:37:03,42.805,6.029,0.026,-0.024,-0.033,101.0,100.0,101.0,13.3,1505.2,324.8,-0.7,1.8,2470.785,13.29,0.035,132.7
2022-09-10T07:40:03,42.805,6.029,-0.008,-0.002,0.006,101.0,100.0,101.0,13.3,1505.2,318.8,-0.8,1.8,2470.798,13.29,0.008,256.0
2022-09-10T07:43:03,42.805,6.029,-0.019,-0.019,-0.04,102.0,101.0,100.0,13.4,1505.2,332.8,-0.8,1.8,2470.783,13.29,0.026,225.0
2022-09-10T07:46:03,42.805,6.029,-0.007,-0.005,-0.033,101.0,101.0,101.0,13.4,1505.2,326.1,-0.8,1.8,2470.823,13.29,0.008,234.5
2022-09-10T07:49:03,42.805,6.029,-0.011,0.008,-0.001,101.0,100.0,100.0,13.4,1505.2,325.6,-0.8,1.8,2470.79,13.29,0.013,306.0
2022-09-10T07:52:03,42.805,6.029,0.013,0.0,-0.034,101.0,102.0,101.0,13.4,1505.2,327.2,-0.8,1.8,2470.796,13.29,0.013,90.0
2022-09-10T07:55:03,42.805,6.029,-0.002,-0.017,-0.011,101.0,101.0,101.0,13.4,1505.2,325.3,-0.8,1.8,2470.771,13.29,0.017,186.7
2022-09-10T07:58:03,42.805,6.029,0.005,0.0,0.011,100.0,103.0,100.0,13.4,1505.2,328.4,-0.7,1.8,2470.817,13.29,0.005,90.0
2022-09-10T08:04:03,42.805,6.029,0.012,0.002,0.0,102.0,102.0,101.0,13.4,1505.2,326.3,-0.7,1.8,2470.821,13.28,0.012,80.5
2022-09-10T08:07:03,42.805,6.029,0.026,-0.004,0.022,102.0,103.0,100.0,13.4,1505.2,321.9,-0.8,1.8,2470.801,13.28,0.026,98.7
2022-09-10T08:10:03,42.805,6.029,0.035,-0.024,-0.024,102.0,101.0,100.0,13.3,1505.2,332.2,-0.8,1.8,2470.846,13.29,0.042,124.4
2022-09-10T08:13:03,42.805,6.029,0.027,0.0,0.016,99.0,101.0,101.0,13.4,1505.2,317.0,-0.7,1.8,2470.795,13.29,0.026,90.0
2022-09-10T08:16:03,42.805,6.029,0.01,-0.008,0.02,103.0,101.0,101.0,13.4,1505.2,330.4,-0.7,1.8,2470.806,13.29,0.012,128.7
2022-09-10T08:19:03,42.805,6.029,0.023,-0.024,-0.026,100.0,101.0,101.0,13.3,1505.2,325.0,-0.7,1.8,2470.806,13.29,0.033,136.2
2022-09-10T08:22:03,42.805,6.029,-0.001,0.0,-0.013,102.0,100.0,101.0,13.4,1505.2,329.2,-0.8,1.8,2470.795,13.29,0.001,270.0
2022-09-10T08:25:03,42.805,6.029,-0.017,-0.006,-0.026,101.0,101.0,102.0,13.4,1505.2,323.1,-0.7,1.8,2470.802,13.29,0.018,250.6
2022-09-10T08:28:03,42.805,6.029,0.005,0.0,-0.011,104.0,101.0,101.0,13.3,1505.2,331.0,-0.7,1.8,2470.794,13.29,0.005,90.0
2022-09-10T08:31:03,42.805,6.029,0.003,-0.014,-0.016,101.0,102.0,101.0,13.4,1505.2,318.9,-0.7,1.8,2470.795,13.29,0.014,167.9
2022-09-10T08:34:03,42.805,6.029,0.007,0.0,-0.03,100.0,102.0,102.0,13.4,1505.2,329.1,-0.8,1.8,2470.775,13.29,0.007,90.0
2022-09-10T08:37:03,42.805,6.029,-0.003,0.005,0.001,102.0,101.0,102.0,13.4,1505.2,331.0,-0.8,1.8,2470.774,13.29,0.005,329.0
2022-09-10T08:40:03,42.805,6.029,0.013,-0.034,-0.041,103.0,100.0,102.0,13.3,1505.2,333.4,-0.7,1.8,2470.759,13.29,0.036,159.1
2022-09-10T08:43:03,42.805,6.029,0.019,-0.026,-0.042,100.0,103.0,101.0,13.3,1505.2,329.1,-0.8,1.8,2470.806,13.29,0.032,143.8
2022-09-10T08:46:03,42.805,6.029,0.012,-0.003,-0.009,101.0,102.0,101.0,13.4,1505.2,326.1,-0.8,1.8,2470.806,13.29,0.012,104.0
2022-09-10T08:49:03,42.805,6.029,-0.012,-0.014,-0.039,102.0,102.0,101.0,13.3,1505.2,329.8,-0.8,1.8,2470.782,13.29,0.018,220.6
2022-09-10T08:52:03,42.805,6.029,0.009,-0.012,0.001,100.0,102.0,101.0,13.4,1505.2,325.0,-0.8,1.8,2470.759,13.29,0.015,143.1
2022-09-10T08:55:03,42.805,6.029,-0.007,-0.021,0.0,101.0,102.0,100.0,13.4,1505.2,320.0,-0.8,1.8,2470.814,13.29,0.022,198.4
2022-09-10T08:58:03,42.805,6.029,0.01,-0.009,-0.002,102.0,101.0,101.0,13.3,1505.2,325.0,-0.7,1.8,2470.794,13.29,0.013,132.0
2022-09-10T09:04:03,42.805,6.029,-0.007,-0.002,-0.027,100.0,102.0,101.0,13.4,1505.2,318.1,-0.8,1.8,2470.769,13.28,0.007,254.1
2022-09-10T09:07:03,42.805,6.029,0.013,-0.008,-0.003,100.0,101.0,101.0,13.3,1505.2,328.3,-0.7,1.8,2470.756,13.28,0.015,121.6
2022-09-10T09:10:03,42.805,6.029,0.013,-0.019,-0.017,102.0,101.0,104.0,13.3,1505.2,322.5,-0.8,1.8,2470.77,13.29,0.023,145.6
2022-09-10T09:13:03,42.805,6.029,-0.002,-0.006,-0.022,102.0,102.0,102.0,13.4,1505.2,329.6,-0.7,1.8,2470.812,13.29,0.006,198.4
2022-09-10T09:16:03,42.805,6.029,0.0,-0.006,-0.004,100.0,101.0,101.0,13.4,1505.2,329.0,-0.8,1.8,2470.746,13.29,0.006,180.0
2022-09-10T09:19:03,42.805,6.029,0.013,-0.019,-0.063,102.0,103.0,100.0,13.3,1505.2,332.8,-0.8,1.8,2470.737,13.29,0.023,145.6
2022-09-10T09:22:03,42.805,6.029,0.0,-0.023,-0.029,103.0,102.0,100.0,13.3,1505.2,334.3,-0.8,1.8,2470.773,13.29,0.023,180.0
2022-09-10T09:25:03,42.805,6.029,0.014,-0.014,0.005,101.0,101.0,100.0,13.3,1505.2,322.4,-0.8,1.8,2470.783,13.29,0.019,135.0
2022-09-10T09:28:03,42.805,6.029,0.013,-0.003,0.012,101.0,102.0,100.0,13.3,1505.2,318.2,-0.7,1.8,2470.759,13.29,0.013,103.0
2022-09-10T09:31:03,42.805,6.029,0.008,-0.007,-0.016,101.0,102.0,101.0,13.3,1505.2,329.2,-0.8,1.8,2470.769,13.29,0.01,131.2
2022-09-10T09:34:03,42.805,6.029,-0.011,0.015,-0.016,100.0,105.0,101.0,13.3,1505.2,324.1,-0.8,1.8,2470.8,13.29,0.018,323.7
2022-09-10T09:37:03,42.805,6.029,0.004,-0.011,-0.013,102.0,102.0,101.0,13.4,1505.2,324.3,-0.8,1.8,2470.748,13.29,0.011,160.0
2022-09-10T09:40:03,42.805,6.029,0.003,-0.002,-0.003,102.0,102.0,101.0,13.3,1505.2,329.3,-0.8,1.8,2470.765,13.29,0.003,123.7
2022-09-10T09:43:03,42.805,6.029,0.0,0.005,0.0,102.0,101.0,100.0,13.3,1505.2,329.6,-0.8,1.8,2470.745,13.29,0.005,0.0
2022-09-10T09:46:03,42.805,6.029,0.014,-0.01,-0.009,103.0,101.0,101.0,13.4,1505.2,324.8,-0.8,1.8,2470.712,13.29,0.017,125.5
2022-09-10T09:49:03,42.805,6.029,0.002,-0.017,-0.032,102.0,102.0,101.0,13.4,1505.2,329.1,-0.8,1.8,2470.765,13.29,0.017,173.3
2022-09-10T09:52:03,42.805,6.029,0.004,-0.016,-0.017,101.0,102.0,102.0,13.4,1505.2,329.6,-0.8,1.8,2470.778,13.29,0.016,166.0
2022-09-10T09:55:03,42.805,6.029,0.003,-0.011,0.0,101.0,101.0,101.0,13.4,1505.2,325.9,-0.8,1.8,2470.734,13.29,0.011,164.7
2022-09-10T09:58:03,42.805,6.029,-0.013,0.001,0.004,101.0,101.0,101.0,13.4,1505.2,323.9,-0.8,1.8,2470.741,13.29,0.013,274.4